FW2498 Weather Reports


Display with metric or nautical units.
time (UTC)temp
F
wind
direction
speed
MPH
gust
MPH
rain 1hr
in
rain 24hr
in
rain mn
in
humidity
%
barometer
mb
20260507003031 54 235 5.0 13.0 0.00 0.00 0.00 23 1014.2
20260507001528 54 313 8.0 14.0 0.00 0.00 0.00 22 1014.3
20260507000028 54 254 7.0 16.0 0.00 0.00 0.00 22 1014.7
20260506234524 54 297 11.0 20.0 0.00 0.00 0.00 21 1014.7
20260506233023 54 329 9.0 18.0 0.00 0.00 0.00 22 1014.9
20260506231519 53 311 10.0 16.0 0.00 0.00 0.00 21 1015.0
20260506230016 53 223 6.0 16.0 0.00 0.00 0.00 22 1015.0
20260506224513 53 275 9.0 19.0 0.00 0.00 0.00 22 1015.1
20260506223010 53 288 11.0 19.0 0.00 0.00 0.00 23 1015.3
20260506221508 53 289 13.0 16.0 0.00 0.00 0.00 22 1015.6
20260506220007 53 267 13.0 17.0 0.00 0.00 0.00 23 1015.8
20260506214505 53 282 13.0 22.0 0.00 0.00 0.00 23 1015.9
20260506213011 53 245 15.0 27.0 0.00 0.00 0.00 23 1016.2
20260506211502 52 287 9.0 19.0 0.00 0.00 0.00 24 1016.4
20260506210100 52 293 8.0 18.0 0.00 0.00 0.00 23 1016.6
20260506204559 52 224 10.0 20.0 0.00 0.00 0.00 24 1016.8
20260506203056 51 270 12.0 22.0 0.00 0.00 0.00 25 1016.9
20260506201612 50 254 13.0 18.0 0.00 0.00 0.00 26 1017.2
20260506200050 51 296 13.0 19.0 0.00 0.00 0.00 25 1017.4
20260506194551 50 229 12.0 21.0 0.00 0.00 0.00 26 1017.5
20260506193051 49 223 14.0 19.0 0.00 0.00 0.00 26 1017.8
20260506191543 49 254 11.0 21.0 0.00 0.00 0.00 25 1018.1
20260506190039 49 250 13.0 20.0 0.00 0.00 0.00 25 1018.5
20260506184547 49 298 4.0 17.0 0.00 0.00 0.00 27 1018.7
20260506183034 48 213 12.0 21.0 0.00 0.00 0.00 26 1019.0
20260506181531 48 306 8.0 15.0 0.00 0.00 0.00 26 1019.3
20260506180028 47 293 12.0 20.0 0.00 0.00 0.00 27 1019.7
20260506174524 47 256 6.0 14.0 0.00 0.00 0.00 27 1019.9
20260506173021 46 306 9.0 21.0 0.00 0.00 0.00 28 1020.3
20260506171519 45 254 5.0 15.0 0.00 0.00 0.00 28 1020.4
20260506170015 45 285 12.0 19.0 0.00 0.00 0.00 27 1020.6
20260506164510 44 323 7.0 18.0 0.00 0.00 0.00 26 1020.9
20260506163007 44 297 8.0 16.0 0.00 0.00 0.00 28 1020.9
20260506161505 44 305 2.0 14.0 0.00 0.00 0.00 29 1021.2
20260506160103 43 306 8.0 17.0 0.00 0.00 0.00 30 1021.3
20260506154602 42 255 7.0 16.0 0.00 0.00 0.00 34 1021.6
20260506153051 41 266 6.0 13.0 0.00 0.00 0.00 36 1021.5
20260506151546 40 245 7.0 12.0 0.00 0.00 0.00 38 1021.5
20260506150042 39 218 5.0 13.0 0.00 0.00 0.00 41 1021.7
20260506144539 38 268 8.0 11.0 0.00 0.00 0.00 41 1021.7
20260506143034 36 263 3.0 8.0 0.00 0.00 0.00 45 1021.8
20260506141529 34 236 3.0 8.0 0.00 0.00 0.00 48 1021.9
20260506140025 33 204 3.0 5.0 0.00 0.00 0.00 50 1022.1
20260506134520 32 223 3.0 6.0 0.00 0.00 0.00 52 1022.1
20260506133021 30 240 3.0 5.0 0.00 0.00 0.00 54 1022.1
20260506131519 28 245 3.0 5.0 0.00 0.00 0.00 56 1022.2
20260506130010 26 245 1.0 3.0 0.00 0.00 0.00 61 1022.2
20260506124506 24 245 0.0 3.0 0.00 0.00 0.00 63 1022.2
20260506123002 23 245 2.0 4.0 0.00 0.00 0.00 63 1022.0
20260506121605 22 245 0.0 5.0 0.00 0.00 0.00 63 1022.0
20260506120109 21 245 0.0 4.0 0.00 0.00 0.00 62 1022.0
20260506114608 22 245 4.0 6.0 0.00 0.00 0.00 61 1021.7
20260506113050 22 245 4.0 6.0 0.00 0.00 0.00 60 1021.8
20260506111552 22 250 2.0 5.0 0.00 0.00 0.00 60 1021.6
20260506110046 22 250 3.0 5.0 0.00 0.00 0.00 60 1021.6
20260506104547 23 250 2.0 5.0 0.00 0.00 0.00 60 1021.6
20260506103044 23 250 5.0 8.0 0.00 0.00 0.00 59 1021.6
20260506101540 24 250 4.0 6.0 0.00 0.00 0.00 57 1021.6
20260506100040 25 258 2.0 4.0 0.00 0.00 0.00 58 1021.4
20260506094541 25 250 5.0 8.0 0.00 0.00 0.00 57 1021.4
20260506093055 26 260 3.0 5.0 0.00 0.00 0.00 55 1021.4
20260506091528 27 273 3.0 5.0 0.00 0.00 0.00 51 1021.4
20260506090025 29 312 3.0 4.0 0.00 0.00 0.00 47 1021.4
20260506084524 31 320 3.0 5.0 0.00 0.00 0.00 47 1021.4
20260506083023 30 320 3.0 4.0 0.00 0.00 0.00 48 1021.4
20260506081520 30 321 1.0 3.0 0.00 0.00 0.00 47 1021.4
20260506073015 32 310 8.0 10.0 0.00 0.00 0.00 43 1021.6
20260506071512 32 319 8.0 9.0 0.00 0.00 0.00 42 1021.6
20260506061502 34 307 4.0 7.0 0.00 0.00 0.00 40 1021.4
20260506044608 35 312 8.0 9.0 0.00 0.00 0.00 41 1021.2
20260506043056 35 302 6.0 7.0 0.00 0.00 0.00 41 1021.2
20260506041607 35 306 5.0 8.0 0.00 0.00 0.00 42 1021.2
20260506040058 36 316 6.0 9.0 0.00 0.00 0.00 42 1021.1
20260506034556 37 325 7.0 9.0 0.00 0.00 0.00 41 1021.0
20260506033055 38 329 7.0 9.0 0.00 0.00 0.00 40 1021.1
20260506031551 39 337 7.0 9.0 0.00 0.00 0.00 39 1020.9
20260506030049 41 343 7.0 9.0 0.00 0.00 0.00 40 1020.8
20260506024548 41 335 6.0 9.0 0.00 0.00 0.00 40 1020.7
20260506023053 42 325 5.0 8.0 0.00 0.00 0.00 39 1020.4
20260506021545 42 327 6.0 10.0 0.00 0.00 0.00 38 1020.5
20260506020113 43 320 6.0 10.0 0.00 0.00 0.00 38 1020.3
20260506014545 43 314 10.0 12.0 0.00 0.00 0.00 37 1020.1
20260506013043 43 333 9.0 13.0 0.00 0.00 0.00 38 1020.0
20260506011547 43 315 12.0 18.0 0.00 0.00 0.00 37 1020.0
20260506010042 43 323 13.0 16.0 0.00 0.00 0.00 36 1020.0
20260506004544 43 333 12.0 18.0 0.00 0.00 0.00 37 1020.0